Weather History for KTRI - February, 2012

Change the Weather History Date:

Monday, February 20, 2012

  Actual Average Record
Temperature  
Mean Temperature 39 °F 40 °F  
Max Temperature 49 °F 51 °F 75 °F (2014)
Min Temperature 28 °F 29 °F -13 °F (2015)
Degree Days  
Heating Degree Days 26 25  
Month to date heating degree days 481 539  
Since 1 July heating degree days 2719 3193  
Cooling Degree Days 0 0  
Month to date cooling degree days 0 0  
Year to date cooling degree days 0 0  
Moisture  
Dew Point 26 °F    
Average Humidity 61    
Maximum Humidity 85    
Minimum Humidity 36    
Precipitation  
Precipitation T in 0.12 in 1.06 in (1967)
Month to date precipitation 2.43 2.49  
Year to date precipitation 7.03 5.86  
Snow  
Snow 0.00 in 0.10 in - ()
Month to date snowfall T 2.5  
Since 1 July snowfall 1.2 9.9  
Snow Depth 0.00 in    
Sea Level Pressure  
Sea Level Pressure 30.20 in    
Wind  
Wind Speed 2 mph (NNW)    
Max Wind Speed 8 mph    
Max Gust Speed 12 mph    
Visibility 10 miles    
Events      
T = Trace of Precipitation, MM = Missing Value Source: NWS Daily Summary

Daily Weather History Graph

Daily Weather History Graph

Search for Another Location

Airport or City:

Trip Planner

Search our weather history database for the weather conditions in past years. The results will help you decide how hot, cold, wet, or windy it might be!

Date:

Astronomy

Feb. 20, 2012 Rise Set
Actual Time 7:12 AM EST 6:14 PM EST
Civil Twilight 6:46 AM EST 6:41 PM EST
Nautical Twilight 6:16 AM EST 7:11 PM EST
Astronomical Twilight 5:46 AM EST 7:41 PM EST
Moon 6:07 AM EST (2/20) 5:18 PM EST (2/20)
Length of Visible Light 11h 55m
Length of Day
11h 02m
Waning Crescent, 2% of the Moon is Illuminated
Feb 20
Waning Crescent
Feb 21
New
Feb 29
First Quarter
Mar 8
Full
Mar 14
Last Quarter

Hourly Weather History & Observations

Time (EST) Temp. Windchill Dew Point Humidity Pressure Visibility Wind Dir Wind Speed Gust Speed Precip Events Conditions
12:36 AM 33.8 °F 29.6 °F 28.4 °F 81% 30.04 in 5.0 mi NNW 4.6 mph - 0.00 in   Haze
12:53 AM 33.1 °F 28.7 °F 28.0 °F 82% 30.04 in 5.0 mi WNW 4.6 mph - 0.00 in   Haze
1:53 AM 32.0 °F 26.4 °F 28.0 °F 85% 30.07 in 10.0 mi NW 5.8 mph - N/A   Mostly Cloudy
2:53 AM 32.0 °F 28.7 °F 26.1 °F 79% 30.09 in 10.0 mi NNW 3.5 mph - N/A   Overcast
3:53 AM 30.9 °F 27.5 °F 25.0 °F 79% 30.10 in 10.0 mi NNE 3.5 mph - N/A   Overcast
4:53 AM 30.9 °F 25.2 °F 24.1 °F 76% 30.14 in 10.0 mi NNW 5.8 mph - N/A   Overcast
5:53 AM 30.0 °F 26.5 °F 26.1 °F 85% 30.17 in 10.0 mi NW 3.5 mph - N/A   Overcast
6:14 AM 28.4 °F 23.3 °F 24.8 °F 86% 30.16 in 10.0 mi North 4.6 mph - N/A   Scattered Clouds
6:53 AM 28.0 °F 21.7 °F 24.1 °F 85% 30.20 in 10.0 mi North 5.8 mph - N/A   Partly Cloudy
7:53 AM 30.0 °F - 25.0 °F 82% 30.24 in 10.0 mi Calm Calm - N/A   Partly Cloudy
8:53 AM 33.1 °F - 26.1 °F 75% 30.25 in 10.0 mi Calm Calm - N/A   Partly Cloudy
9:53 AM 34.0 °F - 26.1 °F 73% 30.27 in 10.0 mi Calm Calm - N/A   Scattered Clouds
10:53 AM 36.0 °F - 26.1 °F 67% 30.29 in 10.0 mi Calm Calm - N/A   Scattered Clouds
11:00 AM 37.4 °F 33.8 °F 26.6 °F 65% 30.28 in 10.0 mi South 4.6 mph - N/A   Mostly Cloudy
11:09 AM 37.4 °F 34.9 °F 26.6 °F 65% 30.28 in 10.0 mi Variable 3.5 mph - N/A   Scattered Clouds
11:53 AM 39.0 °F 35.7 °F 27.0 °F 62% 30.30 in 10.0 mi South 4.6 mph - N/A   Scattered Clouds
12:53 PM 41.0 °F - 26.1 °F 55% 30.28 in 10.0 mi Calm Calm - N/A   Scattered Clouds
1:53 PM 43.0 °F 41.3 °F 27.0 °F 53% 30.25 in 10.0 mi Variable 3.5 mph - N/A   Clear
2:53 PM 45.0 °F 43.5 °F 27.0 °F 49% 30.23 in 10.0 mi SW 3.5 mph - N/A   Clear
3:53 PM 48.0 °F - 27.0 °F 44% 30.21 in 10.0 mi Calm Calm - N/A   Clear
4:53 PM 48.0 °F - 23.0 °F 37% 30.19 in 10.0 mi ENE 5.8 mph - N/A   Clear
5:53 PM 44.1 °F 40.8 °F 27.0 °F 51% 30.19 in 10.0 mi NE 5.8 mph - N/A   Clear
6:53 PM 39.9 °F - 26.1 °F 58% 30.21 in 10.0 mi Calm Calm - N/A   Clear
7:53 PM 36.0 °F - 26.1 °F 67% 30.22 in 10.0 mi Calm Calm - N/A   Clear
8:53 PM 32.0 °F 28.7 °F 27.0 °F 82% 30.23 in 10.0 mi East 3.5 mph - N/A   Clear
9:53 PM 33.1 °F - 26.1 °F 75% 30.21 in 10.0 mi Calm Calm - N/A   Clear
10:53 PM 34.0 °F - 26.1 °F 73% 30.21 in 10.0 mi Calm Calm - N/A   Clear
11:53 PM 28.9 °F - 25.0 °F 85% 30.18 in 10.0 mi Calm Calm - N/A   Clear